Tracking 18942 objects as of 18-Jan-2018
HD Live streaming from Space Station
objects crossing your sky now

FENGYUN 1C DEB

Track FENGYUN 1C DEB now!
10-day predictions


NORAD ID: 30132
Int'l Code: 1999-025SM
Perigee: 849.3 km
Apogee: 1,007.1 km
Inclination: 99.7 °
Period: 103.4 minutes
Semi major axis: 7299 km
RCS: 0.03 m2 (small)
Launch date: May 10, 1999
Source: People's Republic of China (PRC)
Launch site: Taiyaun Space Center, China (TSC)

Note: This is SATELLITE DEBRIS
aabbcc
Your satellite tracking list
Your tracking list is empty




NASA's NSSDC Master Catalog

Two Line Element Set (TLE):
1 30132U 99025SM  18018.07331887  .00000153  00000-0  15023-3 0  9992
2 30132  99.6595 194.8110 0108062 225.9679 260.5316 13.92157336559254
Source of the keplerian elements: AFSPC